| time (UTC) | temp C | wind direction | speed KPH | gust KPH | rain 1hr cm | rain 24hr cm | rain mn cm | humidity % | barometer mb |
| 20260509150150 | 14 | 227 | 0.0 | 3.2 | 0.00 | 0.08 | 0.05 | 80 | 1013.2 |
| 20260509140150 | 12 | 82 | 0.0 | 3.2 | 0.00 | 0.08 | 0.05 | 84 | 1013.2 |
| 20260509130153 | 10 | 336 | 0.0 | 1.6 | 0.00 | 0.08 | 0.05 | 88 | 1014.2 |
| 20260509120152 | 9 | 10 | 1.6 | 4.8 | 0.00 | 0.08 | 0.05 | 89 | 1014.8 |
| 20260509110151 | 8 | 26 | 0.0 | 3.2 | 0.00 | 0.08 | 0.05 | 94 | 1014.4 |
| 20260509100152 | 8 | 0 | 0.0 | 0.0 | 0.00 | 0.08 | 0.03 | 93 | 1014.2 |
| 20260509093149 | 8 | 0 | 0.0 | 0.0 | 0.00 | 0.08 | 0.03 | 93 | 1014.0 |
| 20260509090150 | 8 | 0 | 0.0 | 0.0 | 0.03 | 0.08 | 0.03 | 91 | 1014.2 |
| 20260509083149 | 8 | 0 | 0.0 | 0.0 | 0.03 | 0.08 | 0.03 | 86 | 1014.1 |
| 20260509080149 | 8 | 308 | 0.0 | 3.2 | 0.00 | 0.03 | 0.00 | 85 | 1013.9 |
| 20260509070150 | 8 | 0 | 0.0 | 0.0 | 0.00 | 0.03 | 0.00 | 86 | 1013.7 |
| 20260509063149 | 9 | 0 | 0.0 | 0.0 | 0.00 | 0.03 | 0.00 | 85 | 1014.2 |
| 20260509060149 | 9 | 0 | 0.0 | 0.0 | 0.00 | 0.03 | 0.00 | 84 | 1014.2 |
| 20260509053149 | 9 | 0 | 0.0 | 0.0 | 0.00 | 0.03 | 0.00 | 85 | 1014.3 |
| 20260509050149 | 9 | 0 | 0.0 | 0.0 | 0.00 | 0.03 | 0.00 | 84 | 1014.4 |
| 20260509043150 | 9 | 0 | 0.0 | 0.0 | 0.00 | 0.03 | 0.00 | 83 | 1014.6 |
| 20260509040149 | 8 | 0 | 0.0 | 0.0 | 0.00 | 0.03 | 0.00 | 81 | 1014.5 |
| 20260509030149 | 8 | 0 | 0.0 | 0.0 | 0.00 | 0.03 | 0.03 | 80 | 1014.0 |
| 20260509020150 | 8 | 0 | 0.0 | 0.0 | 0.00 | 0.03 | 0.03 | 72 | 1013.8 |
| 20260509000150 | 13 | 0 | 0.0 | 0.0 | 0.00 | 0.03 | 0.03 | 59 | 1012.3 |
| 20260508230150 | 15 | 292 | 3.2 | 9.7 | 0.00 | 0.03 | 0.03 | 49 | 1011.4 |
| 20260508210150 | 14 | 265 | 9.7 | 19.3 | 0.00 | 0.03 | 0.03 | 55 | 1011.2 |
| 20260508200150 | 12 | 248 | 6.4 | 14.5 | 0.03 | 0.03 | 0.03 | 73 | 1011.7 |
| 20260508190150 | 15 | 309 | 3.2 | 12.9 | 0.00 | 0.00 | 0.00 | 47 | 1010.9 |
| 20260508180150 | 14 | 294 | 9.7 | 25.7 | 0.00 | 0.00 | 0.00 | 45 | 1011.1 |